Tracking 19709 objects as of 19-Jun-2019
HD Live streaming from Space Station
objects crossing your sky now

RADUGA 1-4

Track RADUGA 1-4 now!
RADUGA 1-4 is classified as:


NORAD ID: 25642
Int'l Code: 1999-010A
Perigee: 35,799.2 km
Apogee: 35,834.2 km
Inclination: 14.7 °
Period: 1,437.3 minutes
Semi major axis: 42187 km
RCS: 12.5893 m2 (large)
Launch date: February 28, 1999
Source: Commonwealth of Independent States (former USSR) (CIS)
Launch site: TYURATAM MISSILE AND SPACE COMPLEX (TTMTR)

Military communication.
aabbcc
Your satellite tracking list
Your tracking list is empty




NASA's NSSDC Master Catalog

Two Line Element Set (TLE):
1 25642U 99010A   19169.10010505 -.00000125  00000-0  00000+0 0  9994
2 25642  14.6790  23.7209 0004147 276.5502  79.0570  1.00189858 74340
Source of the keplerian elements: AFSPC